Ogden Hill AFB, UT

7:25 PM MDT on March 30, 2017 (GMT -0600)
Hill Air Force Base

Weather History for KHIF - November, 2013

Change the Weather History Date:

Friday, November 22, 2013

  Actual Average Record
Temperature  
Mean Temperature 32 °F -  
Max Temperature 38 °F 41 °F 60 °F (2006)
Min Temperature 27 °F 28 °F 17 °F (2003)
Degree Days  
Heating Degree Days 32    
Moisture  
Dew Point -2 °F    
Average Humidity 23    
Maximum Humidity 29    
Minimum Humidity 14    
Precipitation  
Precipitation 0.10 in - - ()
Sea Level Pressure  
Sea Level Pressure 30.33 in    
Wind  
Wind Speed 13 mph (NE)    
Max Wind Speed 40 mph    
Max Gust Speed 51 mph    
Visibility 10 miles    
Events Snow    
Averages and records for this station are not official NWS values.
T = Trace of Precipitation, MM = Missing Value Source: NWS Daily Summary

Daily Weather History Graph

Daily Weather History Graph

Search for Another Location

Airport or City:

Trip Planner

Search our weather history database for the weather conditions in past years. The results will help you decide how hot, cold, wet, or windy it might be!

Date:

Astronomy

Nov. 22, 2013 Rise Set
Actual Time 7:24 AM MST 5:03 PM MST
Civil Twilight 6:54 AM MST 5:33 PM MST
Nautical Twilight 6:20 AM MST 6:07 PM MST
Astronomical Twilight 5:47 AM MST 6:40 PM MST
Moon 9:40 PM MST (11/22) 11:09 AM MST (11/22)
Length of Visible Light 10h 39m
Length of Day
9h 39m
Waning Gibbous, 77% of the Moon is Illuminated
Nov 22
Waning Gibbous
Nov 25
Last Quarter
Dec 2
New
Dec 9
First Quarter
Dec 17
Full

Hourly Weather History & Observations

Time (MST) Temp. Windchill Dew Point Humidity Pressure Visibility Wind Dir Wind Speed Gust Speed Precip Events Conditions
12:21 AM 33.8 °F 27.0 °F -7.6 °F 17% 30.30 in 10.0 mi NE 8.1 mph 23.0 mph N/A   Scattered Clouds
12:29 AM 33.8 °F 27.7 °F -7.6 °F 17% 30.30 in 10.0 mi Variable 6.9 mph 23.0 mph N/A   Scattered Clouds
12:58 AM 34.0 °F 23.8 °F -8.3 °F 16% 30.34 in 10.0 mi NE 16.1 mph 31.1 mph 0.01 in   Clear
1:58 AM 33.6 °F 24.1 °F -7.4 °F 17% 30.34 in 10.0 mi NE 13.8 mph 23.0 mph N/A   Clear
2:58 AM 33.3 °F 28.9 °F -7.4 °F 17% 30.35 in 10.0 mi Variable 4.6 mph - N/A   Clear
3:58 AM 32.5 °F 28.1 °F -6.5 °F 19% 30.33 in 10.0 mi Variable 4.6 mph - N/A   Clear
4:58 AM 31.1 °F 24.5 °F -3.8 °F 22% 30.34 in 10.0 mi Variable 6.9 mph 18.4 mph 0.04 in Snow Light Snow
5:00 AM 32.0 °F 22.1 °F -4.0 °F 21% 30.29 in 10.0 mi NE 13.8 mph 24.2 mph N/A   Clear
5:58 AM 30.2 °F 20.8 °F -3.3 °F 24% 30.34 in 10.0 mi ENE 11.5 mph 23.0 mph 0.03 in   Clear
6:58 AM 28.8 °F 18.4 °F -2.0 °F 27% 30.36 in 10.0 mi ENE 12.7 mph 19.6 mph 0.02 in   Clear
7:58 AM 27.7 °F 14.8 °F -1.3 °F 29% 30.38 in 10.0 mi ENE 18.4 mph 26.5 mph N/A   Scattered Clouds
8:58 AM 28.6 °F 17.2 °F -0.2 °F 29% 30.38 in 10.0 mi ENE 15.0 mph 27.6 mph N/A   Partly Cloudy
9:58 AM 30.6 °F 19.4 °F -0.6 °F 26% 30.38 in 10.0 mi ENE 16.1 mph 26.5 mph N/A   Scattered Clouds
10:58 AM 30.7 °F 19.6 °F 1.4 °F 29% 30.36 in 10.0 mi ENE 16.1 mph 25.3 mph N/A   Scattered Clouds
11:58 AM 33.4 °F 17.8 °F 3.0 °F 28% 30.34 in 10.0 mi NE 40.3 mph 50.6 mph N/A   Scattered Clouds
12:58 PM 36.1 °F 27.7 °F 4.6 °F 27% 30.33 in 10.0 mi NE 12.7 mph 25.3 mph N/A   Scattered Clouds
1:58 PM 37.8 °F 29.0 °F 5.9 °F 27% 30.31 in 10.0 mi NE 15.0 mph 26.5 mph N/A   Scattered Clouds
2:58 PM 38.5 °F 32.1 °F 7.5 °F 28% 30.31 in 10.0 mi North 9.2 mph - N/A   Scattered Clouds
3:58 PM 37.0 °F 26.7 °F 5.5 °F 27% 30.30 in 10.0 mi NNE 19.6 mph 29.9 mph N/A   Scattered Clouds
4:58 PM 36.3 °F 30.1 °F 4.6 °F 27% 30.31 in 10.0 mi ENE 8.1 mph 24.2 mph N/A   Partly Cloudy
5:58 PM 37.4 °F 27.8 °F 1.0 °F 22% 30.32 in 10.0 mi NNE 17.3 mph 25.3 mph N/A   Partly Cloudy
6:58 PM 35.8 °F 24.8 °F 0.1 °F 22% 30.33 in 10.0 mi North 20.7 mph 27.6 mph N/A   Clear
7:58 PM 34.7 °F 23.7 °F -1.7 °F 21% 30.33 in 10.0 mi North 19.6 mph - N/A   Clear
8:58 PM 37.2 °F 27.9 °F -5.3 °F 16% 30.33 in 10.0 mi NNE 16.1 mph 25.3 mph N/A   Clear
9:58 PM 38.3 °F 28.1 °F -8.3 °F 14% 30.33 in 10.0 mi North 20.7 mph 27.6 mph N/A   Clear
10:58 PM 37.2 °F 28.3 °F -3.6 °F 18% 30.33 in 10.0 mi NE 15.0 mph 26.5 mph N/A   Clear
11:58 PM 35.8 °F 26.1 °F -0.8 °F 21% 30.34 in 10.0 mi North 16.1 mph 24.2 mph N/A   Clear